Regional Weather Roundup
Issued by NWS Cleveland, OH

Home | Current Version | Previous Version | Graphics & Text | Print | Product List | Glossary On
Versions: 1 2 3 4 5 6 7 8 9 10 11 12 13 14 15 16 17 18 19 20 21 22 23 24 25 26 27 28 29 30 31 32 33 34 35 36 37 38 39 40 41 42 43 44 45 46 47 48 49 50
000
ASUS41 KCLE 020700
RWRCLE
OHIO REGIONAL WEATHER ROUNDUP
NATIONAL WEATHER SERVICE WILMINGTON, OH
300 AM EDT THU OCT 02 2014

NOTE: "FAIR" INDICATES FEW OR NO CLOUDS BELOW 12,000 FEET WITH NO
SIGNIFICANT WEATHER AND/OR OBSTRUCTIONS TO VISIBILITY.

OHZ001>008-015>018-024>027-034-035-043-044-020800-
   NORTHWEST OHIO

CITY           SKY/WX    TMP DP  RH WIND       PRES   REMARKS
DEFIANCE       CLEAR     52  49  89 CALM      30.02S FOG
FINDLAY        CLEAR     53  50  89 SE5       30.02S
TOLEDO EXPRESS PTCLDY    50  50 100 CALM      30.03S FOG
TOLEDO METCALF FOG       51  49  92 E3        30.04S VSB 1/4
LIMA           CLEAR     55  50  83 SE6       30.02S
$$

OHZ009>014-019>023-028>033-038-089-020800-
   NORTHEAST OHIO

CITY           SKY/WX    TMP DP  RH WIND       PRES   REMARKS
CLE-HOPKINS    PTCLDY    52  51  97 SE5       30.07F FOG
CLE-LAKEFRONT  CLEAR     57  54  89 SE3       30.04F
CUY CO. ARPT   NOT AVBL
LORAIN-ELYRIA  FOG       51  47  86 CALM      30.05F VSB 1/4
ASHTABULA      FOG       54  53  97 CALM      30.08R VSB 1/4
AKRON-CANTON   PTCLDY    52  49  89 CALM      30.06S FOG
WOOSTER        NOT AVBL
MANSFIELD      CLEAR     47  47 100 SE3       30.05F FOG
YOUNGSTOWN     MOCLDY    49  49 100 CALM      30.06S FOG
$$

OHZ042-051>053-060>062-070>072-077>081-020800-
  SOUTHWEST OHIO

CITY           SKY/WX    TMP DP  RH WIND       PRES   REMARKS
CINC-COVINGTON CLEAR     61  52  72 E5        30.01R
CINC-LUNKEN    CLEAR     52  51  97 CALM      30.02S
HAMILTON       CLEAR     50  49  96 CALM      30.02S
DAYTON         NOT AVBL
WRIGHT-PAT AFB CLEAR     51  47  88 CALM      30.03S
DAYTON GENERAL CLEAR     56  47  71 E7        30.01F
WILMINGTON     CLEAR     54  45  71 E6        30.03S
$$

OHZ036-037-039>041-045>050-054>059-063>069-073>076-082>088-020800-
  CENTRAL AND SOUTHEAST OHIO

CITY           SKY/WX    TMP DP  RH WIND       PRES   REMARKS
COLUMBUS       CLEAR     52  49  89 CALM      30.04S
OSU AIRPORT    CLEAR     51  49  92 CALM      30.04S FOG
BOLTON FIELD   NOT AVBL
RICKENBACK AFB NOT AVBL
NEWARK         FOG       44  43  96 CALM      30.05S VSB 1/4
MARION         CLEAR     51  49  92 SE3       30.04F FOG
LANCASTER      CLEAR     45  43  93 CALM      30.05S FOG
ZANESVILLE     FOG       46  44  93 CALM      30.05S VSB 1/4
NEW PHILLY     FOG       51  51 100 CALM      30.06S VSB 1/4
$$


USA.gov is the U.S. government's official web portal to all federal, state and local government web resources and services.